Date String (YYYY-MM-DD hh:mm:ss) UTC,Instrument flags,absolute air pressure of the measurement (hPa),sample flow rate (lpm),inlet stack bypass flow (lpm),air temperature of the measurement (°C),ambient temperature measured by the external sensor (°C),aerosol sample conditioner tube jacket temperature (°C),OPC LED temperature (°C),internal box temperature (°C),relative humidity of the measurement (%),span deviation,mass concentration of particles derived from Lorenz-Mie calculation of OPC scattering (μg/m³),mass concentration of particles derived from Lorenz-Mie calculation of OPC scattering (μg/m³),mass concentration of particles derived from Lorenz-Mie calculation of OPC scattering (μg/m³)
DateTimeUTC,F1_M11,P_M11,Q1_M11,Q2_M11,T1_M11,T2_M11,T3_M11,T4_M11,T5_M11,U1_M11,ZSPAN_M11,X2_M11,X0_M11,X1_M11
2023-09-27 11:00:00,SystemResetWarning,0832.5,5.00,000.00,028.9,027.4,000.0,037.4,030.5,16.0,0003.7,0006.66,0018.01,0005.06
2023-09-27 11:01:00,SystemResetWarning,0832.5,5.00,000.00,028.9,027.4,000.0,037.4,030.5,15.9,0003.8,0006.71,0019.83,0005.07
2023-09-27 11:02:00,SystemResetWarning,0832.5,5.00,000.00,028.9,027.4,000.0,037.4,030.5,15.7,0003.7,0006.74,0020.60,0005.09
2023-09-27 11:03:00,SystemResetWarning,0832.5,5.01,000.00,028.9,027.4,000.0,037.4,030.5,15.6,0003.8,0006.74,0021.34,0005.11
2023-09-27 11:04:00,SystemResetWarning,0832.4,5.01,000.00,028.9,027.4,000.0,037.4,030.5,15.5,0003.9,0006.79,0021.02,0005.13
2023-09-27 11:05:00,SystemResetWarning,0832.4,5.00,000.00,028.9,027.4,000.0,037.4,030.6,15.5,0003.8,0006.75,0020.80,0005.13
2023-09-27 11:06:00,SystemResetWarning,0832.4,5.01,000.00,028.9,027.5,000.0,037.4,030.6,15.5,0004.0,0006.70,0020.10,0005.13
2023-09-27 11:07:00,SystemResetWarning,0832.5,5.00,000.00,028.9,027.5,000.0,037.4,030.6,15.5,0003.9,0006.68,0021.32,0005.11
2023-09-27 11:08:00,SystemResetWarning,0832.5,5.00,000.00,028.9,027.5,000.0,037.4,030.6,15.6,0003.9,0006.80,0021.64,0005.13
2023-09-27 11:09:00,SystemResetWarning,0832.5,4.99,000.00,028.9,027.5,000.0,037.4,030.6,15.8,0003.5,0006.77,0021.39,0005.12
2023-09-27 11:10:00,SystemResetWarning,0832.5,5.01,000.00,028.9,027.5,000.0,037.4,030.6,15.8,0003.2,0006.85,0022.12,0005.11
2023-09-27 11:11:00,SystemResetWarning,0832.5,5.01,000.00,028.9,027.5,000.0,037.4,030.5,15.8,0003.0,0006.87,0022.55,0005.11
2023-09-27 11:12:00,SystemResetWarning,0832.5,5.01,000.00,028.9,027.5,000.0,037.4,030.6,15.8,0002.6,0006.87,0022.07,0005.09
2023-09-27 11:13:00,SystemResetWarning,0832.5,5.01,000.00,028.9,027.5,000.0,037.4,030.6,15.8,0002.8,0006.92,0021.78,0005.09
2023-09-27 11:14:00,SystemResetWarning,0832.5,5.00,000.00,028.9,027.5,000.0,037.4,030.6,15.9,0002.4,0006.90,0021.75,0005.07
2023-09-27 11:15:00,SystemResetWarning,0832.5,5.00,000.00,028.9,027.5,000.0,037.4,030.6,15.8,0001.5,0006.89,0021.63,0005.07
2023-09-27 11:16:00,SystemResetWarning,0832.4,5.00,000.00,028.9,027.5,000.0,037.4,030.6,15.8,0001.9,0006.91,0021.76,0005.06
2023-09-27 11:17:00,SystemResetWarning,0832.3,4.99,000.00,028.9,027.5,000.0,037.4,030.6,15.8,0001.9,0006.97,0022.90,0005.05
2023-09-27 11:18:00,SystemResetWarning,0832.4,5.00,000.00,028.9,027.5,000.0,037.4,030.6,15.5,0002.0,0006.99,0022.13,0005.05
2023-09-27 11:19:00,SystemResetWarning,0832.4,5.00,000.00,028.9,027.5,000.0,037.4,030.6,15.3,0002.1,0006.99,0022.74,0005.04
2023-09-27 11:20:00,SystemResetWarning,0832.3,5.00,000.00,028.9,027.5,000.0,037.4,030.6,15.4,0002.0,0007.00,0024.04,0005.03
2023-09-27 11:21:00,SystemResetWarning,0832.3,5.00,000.00,028.9,027.6,000.0,037.4,030.6,14.9,0001.9,0006.97,0024.59,0005.02
2023-09-27 11:22:00,SystemResetWarning,0832.3,5.00,000.00,029.0,027.6,000.0,037.4,030.6,14.8,0001.7,0006.96,0024.44,0005.00
2023-09-27 11:23:00,SystemResetWarning,0832.4,5.00,000.00,029.0,027.6,000.0,037.4,030.6,14.6,0001.7,0006.90,0023.97,0004.99
2023-09-27 11:24:00,SystemResetWarning,0832.4,4.99,000.00,029.0,027.6,000.0,037.4,030.6,14.7,0001.7,0006.86,0023.89,0004.96
2023-09-27 11:25:00,SystemResetWarning,0832.4,5.00,000.00,029.0,027.6,000.0,037.4,030.6,14.9,0002.1,0006.89,0023.58,0004.95
2023-09-27 11:26:00,SystemResetWarning,0832.5,5.01,000.00,029.0,027.6,000.0,037.4,030.7,15.2,0002.5,0006.92,0024.77,0004.94
2023-09-27 11:27:00,SystemResetWarning,0832.5,5.01,000.00,029.0,027.6,000.0,037.4,030.7,15.6,0000.9,0006.85,0025.13,0004.92
2023-09-27 11:28:00,SystemResetWarning,0832.5,5.00,000.00,029.0,027.6,000.0,037.4,030.7,16.0,0000.0,0006.80,0024.29,0004.90
2023-09-27 11:29:00,SystemResetWarning,0832.5,5.00,000.00,029.0,027.6,000.0,037.4,030.7,15.9,0000.0,0006.76,0024.13,0004.88
2023-09-27 11:30:00,SystemResetWarning,0832.5,5.00,000.00,029.0,027.6,000.0,037.4,030.6,16.1,0000.0,0006.62,0022.91,0004.87
2023-09-27 11:31:00,SystemResetWarning,0832.5,4.99,000.00,029.0,027.6,000.0,037.4,030.7,16.1,0000.0,0006.50,0021.83,0004.86
2023-09-27 11:32:00,SystemResetWarning,0832.4,4.99,000.00,029.0,027.6,000.0,037.4,030.7,15.8,0000.0,0006.41,0020.95,0004.85
2023-09-27 11:33:00,SystemResetWarning,0832.4,5.01,000.00,029.0,027.6,000.0,037.4,030.7,15.6,0000.0,0006.36,0020.38,0004.86
2023-09-27 11:34:00,SystemResetWarning,0832.4,5.01,000.00,029.0,027.6,000.0,037.5,030.7,15.6,0000.0,0006.33,0019.85,0004.88
2023-09-27 11:35:00,SystemResetWarning,0832.5,5.00,000.00,029.0,027.6,000.0,037.5,030.7,15.5,0000.0,0006.30,0019.47,0004.88
2023-09-27 11:36:00,SystemResetWarning,0832.5,5.00,000.00,029.0,027.6,000.0,037.5,030.7,15.5,0000.0,0006.21,0019.54,0004.88
2023-09-27 11:37:00,SystemResetWarning,0832.5,5.00,000.00,029.0,027.6,000.0,037.5,030.7,15.6,0000.0,0006.16,0019.23,0004.88
2023-09-27 11:38:00,SystemResetWarning,0832.5,4.99,000.00,029.0,027.6,000.0,037.5,030.7,16.1,0000.0,0006.15,0019.24,0004.87
2023-09-27 11:39:00,SystemResetWarning,0832.5,5.00,000.00,029.0,027.6,000.0,037.5,030.7,16.7,0000.1,0006.16,0019.47,0004.88
2023-09-27 11:40:00,SystemResetWarning,0832.5,5.00,000.00,029.0,027.6,000.0,037.5,030.7,16.4,0001.2,0006.17,0019.26,0004.89
2023-09-27 11:41:00,SystemResetWarning,0832.5,5.01,000.00,029.0,027.6,000.0,037.5,030.7,16.1,0000.7,0006.21,0019.57,0004.89
2023-09-27 11:42:00,SystemResetWarning,0832.5,5.00,000.00,029.0,027.6,000.0,037.5,030.7,16.3,0001.3,0006.27,0019.71,0004.91
2023-09-27 11:43:00,SystemResetWarning,0832.5,5.00,000.00,029.0,027.6,000.0,037.5,030.7,18.0,0002.0,0006.33,0019.64,0004.92
2023-09-27 11:44:00,SystemResetWarning,0832.5,5.00,000.00,029.0,027.6,000.0,037.5,030.7,18.7,0002.2,0006.34,0019.67,0004.92
2023-09-27 11:45:00,SystemResetWarning,0832.5,5.01,000.00,029.0,027.6,000.0,037.5,030.7,18.8,0002.5,0006.40,0020.15,0004.93
2023-09-27 11:46:00,SystemResetWarning,0832.5,5.00,000.00,029.0,027.6,000.0,037.5,030.7,19.0,0001.5,0006.41,0020.56,0004.93
2023-09-27 11:47:00,SystemResetWarning,0832.5,5.00,000.00,029.0,027.6,000.0,037.5,030.7,19.1,-000.1,0006.41,0020.11,0004.92
2023-09-27 11:48:00,SystemResetWarning,0832.5,5.00,000.00,029.0,027.6,000.0,037.5,030.7,19.2,0000.0,0006.40,0018.92,0004.93
2023-09-27 11:49:00,SystemResetWarning,0832.5,5.00,000.00,029.0,027.6,000.0,037.5,030.7,19.0,0000.3,0006.39,0018.01,0004.94
2023-09-27 11:50:00,SystemResetWarning,0832.5,5.00,000.00,029.0,027.5,000.0,037.5,030.6,19.0,0001.0,0006.33,0017.59,0004.92
2023-09-27 11:51:00,SystemResetWarning,0832.5,5.00,000.00,029.0,027.5,000.0,037.5,030.7,19.1,0002.2,0006.26,0018.20,0004.92
2023-09-27 11:52:00,SystemResetWarning,0832.5,5.01,000.00,029.0,027.5,000.0,037.5,030.7,19.2,0002.4,0006.17,0019.03,0004.92
2023-09-27 11:53:00,SystemResetWarning,0832.6,5.00,000.00,029.0,027.6,000.0,037.5,030.7,19.1,0002.2,0006.16,0018.92,0004.92
2023-09-27 11:54:00,SystemResetWarning,0832.6,5.00,000.00,029.0,027.6,000.0,037.5,030.7,19.1,0002.2,0006.17,0018.14,0004.91
2023-09-27 11:55:00,SystemResetWarning,0832.5,5.00,000.00,029.0,027.6,000.0,037.5,030.7,19.3,0002.2,0006.20,0018.11,0004.91
2023-09-27 11:56:00,SystemResetWarning,0832.5,4.99,000.00,029.0,027.6,000.0,037.5,030.7,19.3,0001.9,0006.20,0017.11,0004.91
2023-09-27 11:57:00,SystemResetWarning,0832.5,4.99,000.00,029.0,027.6,000.0,037.5,030.7,19.3,0001.8,0006.16,0016.45,0004.89
2023-09-27 11:58:00,SystemResetWarning,0832.5,5.00,000.00,029.0,027.6,000.0,037.5,030.7,19.2,0002.4,0006.20,0016.35,0004.89
2023-09-27 11:59:00,SystemResetWarning,0832.5,5.00,000.00,029.0,027.6,000.0,037.5,030.7,19.1,0002.4,0006.23,0016.41,0004.89
